CST,Max TemperatureF,Mean TemperatureF,Min TemperatureF,Max Dew PointF,MeanDew PointF,Min DewpointF,Max Humidity, Mean Humidity, Min Humidity, Max Sea Level PressureIn, Mean Sea Level PressureIn, Min Sea Level PressureIn, Max VisibilityMiles, Mean VisibilityMiles, Min VisibilityMiles, Max Wind SpeedMPH, Mean Wind SpeedMPH, Max Gust SpeedMPH,PrecipitationIn, CloudCover, Events, WindDirDegrees
2013-1-1,26,12,-2,27,11,-4,100,97,85,30.07,29.88,29.74,10,7,1,23,15,23,0.01,7,Snow,238
2013-1-2,28,16,1,28,13,0,100,91,79,30.21,29.98,29.74,10,9,2,31,18,37,0.75,5,Rain-Snow,331
2013-1-3,28,12,-4,18,11,-9,100,81,59,30.20,29.97,29.82,10,8,0,32,14,38,0.00,1,Rain-Snow,253
2013-1-4,26,14,1,18,12,0,100,86,64,30.05,29.99,29.91,10,9,0,18,10,24,0.00,0,Fog-Snow,343
2013-1-5,17,11,5,18,11,3,100,96,86,30.06,29.99,29.92,10,9,0,25,8,29,0.00,6,Fog-Snow,332
2013-1-6,24,18,14,23,16,14,100,100,93,30.09,29.88,29.57,10,7,0,25,15,28,0.00,6,Fog-Snow,224
2013-1-7,28,19,10,27,20,10,100,88,69,29.78,29.67,29.54,10,10,10,29,21,36,0.00,2,,257
2013-1-8,32,20,8,32,21,7,100,95,86,29.73,29.58,29.48,10,7,0,37,15,46,0.12,4,Rain-Snow,236
2013-1-9,23,16,10,21,16,9,100,92,86,30.05,29.93,29.70,10,10,2,30,18,43,0.00,2,Rain,230
2013-1-10,30,22,15,28,23,16,100,100,93,29.82,29.62,29.56,10,8,0,29,12,32,0.07,2,Rain-Snow,199
2013-1-11,15,8,0,16,4,-4,100,93,85,29.70,29.64,29.58,1,0,0,38,28,46,7.71,8,Rain-Snow,4
2013-1-12,1,-6,-13,0,-10,-18,92,81,71,30.09,29.95,29.70,10,5,0,39,27,48,5.33,3,Rain-Snow,323
2013-1-13,3,-6,-13,0,-7,-18,92,82,72,30.12,30.08,30.01,10,10,7,21,10,26,0.00,4,Rain-Snow,299
2013-1-14,3,-8,-18,0,-9,-22,92,83,76,30.14,30.09,29.99,10,10,10,14,8,,0.00,6,Snow,236
2013-1-15,35,16,-4,36,9,-9,100,90,78,29.98,29.71,29.45,10,9,1,32,13,43,0.18,4,Rain-Snow,235
2013-1-16,32,16,0,30,3,-8,100,84,66,30.15,29.92,29.53,10,9,2,33,16,40,0.12,7,Rain-Snow,15
2013-1-17,10,5,0,7,0,-6,92,83,72,30.31,30.20,29.92,10,9,1,24,13,32,0.11,4,Snow,296
2013-1-18,24,15,6,23,15,5,100,99,92,29.91,29.71,29.60,10,9,1,13,7,,0.18,7,Snow,154
2013-1-19,32,10,-13,32,-1,-18,100,84,70,30.27,30.01,29.58,10,6,0,48,22,59,1.80,3,Fog-Rain-Snow,313
2013-1-20,-4,-10,-16,-9,-18,-24,84,71,59,30.35,30.27,30.22,10,8,1,31,16,36,0.04,2,Rain-Snow,310
2013-1-21,-5,-12,-20,-17,-21,-26,76,70,59,30.27,30.20,30.17,10,10,10,28,17,33,0.00,0,Snow,315
2013-1-22,3,-10,-23,-4,-14,-29,85,74,56,30.20,30.12,30.05,10,10,10,13,7,,0.00,3,,240
2013-1-23,0,-9,-18,-4,-18,-27,85,73,63,30.51,30.38,30.08,10,10,4,24,14,30,0.00,2,Snow,9
2013-1-24,8,-4,-16,5,-12,-26,92,76,64,30.49,30.11,29.79,10,8,0,28,16,34,0.02,6,Fog-Rain-Snow,177
2013-1-25,5,-4,-13,0,-13,-18,92,74,60,30.18,30.08,29.83,10,8,1,28,18,37,0.03,3,Rain-Snow,288
2013-1-26,14,5,-4,12,1,-11,100,85,66,30.09,29.93,29.88,10,10,10,20,11,24,0.00,3,,191
2013-1-27,15,8,1,16,6,0,100,93,85,29.90,29.80,29.74,10,10,9,8,3,,0.00,1,Snow,169
2013-1-28,23,14,5,21,14,5,100,98,92,29.75,29.73,29.70,10,8,1,15,5,,0.21,4,Snow,257
2013-1-29,17,12,6,18,14,5,100,97,85,29.98,29.81,29.69,10,6,0,26,13,30,0.61,7,Fog-Rain-Snow,341
2013-1-30,6,-6,-18,3,-14,-26,92,77,70,29.97,29.90,29.84,10,5,1,24,19,30,0.04,7,Rain-Snow,329
2013-1-31,-9,-16,-23,-20,-24,-31,84,70,54,30.18,30.11,29.95,10,6,1,29,21,33,0.01,2,Rain-Snow,320